TimeEST,TemperatureF,Dew PointF,Humidity,Sea Level PressureIn,VisibilityMPH,Wind Direction,Wind SpeedMPH,Gust SpeedMPH,PrecipitationIn,Events,Conditions,WindDirDegrees,DateUTC
12:56 AM,30.9,28.0,89,30.44,10.0,Calm,Calm,-,N/A,,Clear,0,2013-01-08 05:56:00
1:56 AM,30.0,27.0,88,30.45,10.0,Calm,Calm,-,N/A,,Clear,0,2013-01-08 06:56:00
2:56 AM,28.9,26.1,89,30.44,8.0,Calm,Calm,-,N/A,,Scattered Clouds,0,2013-01-08 07:56:00
3:56 AM,30.0,26.1,85,30.43,10.0,Calm,Calm,-,N/A,,Scattered Clouds,0,2013-01-08 08:56:00
4:56 AM,28.0,26.1,92,30.43,10.0,Calm,Calm,-,N/A,,Partly Cloudy,0,2013-01-08 09:56:00
5:56 AM,28.9,26.1,89,30.44,6.0,Calm,Calm,-,N/A,,Clear,0,2013-01-08 10:56:00
6:56 AM,28.9,26.1,89,30.45,9.0,Calm,Calm,-,N/A,,Partly Cloudy,0,2013-01-08 11:56:00
7:56 AM,30.0,28.0,92,30.47,7.0,Calm,Calm,-,N/A,,Scattered Clouds,0,2013-01-08 12:56:00
8:56 AM,39.0,35.1,86,30.48,8.0,Calm,Calm,-,N/A,,Scattered Clouds,0,2013-01-08 13:56:00
9:56 AM,48.9,37.9,66,30.49,10.0,Calm,Calm,-,N/A,,Scattered Clouds,0,2013-01-08 14:56:00
10:56 AM,52.0,37.9,59,30.48,10.0,SE,5.8,-,N/A,,Scattered Clouds,140,2013-01-08 15:56:00
11:56 AM,54.0,39.0,57,30.43,10.0,SE,10.4,-,N/A,,Mostly Cloudy,140,2013-01-08 16:56:00
12:56 PM,55.0,41.0,59,30.40,10.0,ESE,6.9,-,N/A,,Mostly Cloudy,120,2013-01-08 17:56:00
1:56 PM,57.0,43.0,59,30.39,10.0,South,6.9,-,N/A,,Mostly Cloudy,180,2013-01-08 18:56:00
2:56 PM,57.0,45.0,64,30.39,10.0,SSE,6.9,-,N/A,,Mostly Cloudy,160,2013-01-08 19:56:00
3:56 PM,54.0,45.0,72,30.39,10.0,East,8.1,-,N/A,,Overcast,100,2013-01-08 20:56:00
4:56 PM,51.1,44.1,77,30.41,10.0,East,5.8,-,N/A,,Mostly Cloudy,80,2013-01-08 21:56:00
5:56 PM,46.9,42.1,83,30.41,10.0,East,3.5,-,N/A,,Mostly Cloudy,90,2013-01-08 22:56:00
6:56 PM,48.0,43.0,83,30.42,10.0,East,3.5,-,N/A,,Mostly Cloudy,100,2013-01-08 23:56:00
7:56 PM,46.0,42.1,86,30.40,10.0,ESE,5.8,-,N/A,,Partly Cloudy,110,2013-01-09 00:56:00
8:56 PM,44.1,41.0,89,30.40,9.0,Calm,Calm,-,N/A,,Clear,0,2013-01-09 01:56:00
9:56 PM,43.0,39.9,89,30.40,8.0,Calm,Calm,-,N/A,,Clear,0,2013-01-09 02:56:00
10:56 PM,41.0,39.0,93,30.40,6.0,Calm,Calm,-,N/A,Fog,Mostly Cloudy,0,2013-01-09 03:56:00
11:56 PM,42.1,39.9,92,30.40,5.0,Calm,Calm,-,N/A,Fog,Partly Cloudy,0,2013-01-09 04:56:00